Location: Baia Mare
(47.6567°N, 23.5850°E)
Time: 19:50:39
(UTC+03:00)

ISS - Pass Details

Date: 05 November 2018
Orbit: 403 x 408 km, 51.6° (Epoch: 23 October)

Event Time Altitude Azimuth Distance (km) Brightness Sun altitude
Exits shadow 06:29:28 11° 296° (WNW) 1,413 -1.7 -8.2°
Maximum altitude 06:32:28 42° 8° (N) 588 -3.1 -7.7°
Drops below altitude 10° 06:35:38 10° 82° (E) 1,464 0.2 -7.2°
Sets 06:37:47 0° 89° (E) 2,325 1.8 -6.8°
